Location: Marsån
(66.4167°N, 22.2833°E)
Time: 10:43:17
(UTC+00:00)

SL-8 Rocket - Pass Details

Date: 24 February 2024
Orbit: 957 x 990 km, 82.9° (Epoch: 16 April)

Event Time Altitude Azimuth Distance (km) Brightness Sun altitude
Rises 22:25:11 0° 338° (NNW) 3,706 8.0 -32.9°
Reaches altitude 10° 22:27:45 10° 342° (NNW) 2,759 7.2 -32.9°
Enters shadow 22:33:37 59° 45° (NE) 1,140 4.4 -32.9°
